Change the Weather History Date:

Wednesday, August 20, 2014

  Actual Average Record
Temperature  
Mean Temperature 86 °F 84 °F  
Max Temperature 91 °F 89 °F 94 °F (1958)
Min Temperature 81 °F 80 °F 69 °F (1963)
Degree Days  
Heating Degree Days 0 0  
Month to date heating degree days 0 0  
Since 1 June heating degree days 0 0  
Since 1 July heating degree days 0 0  
Cooling Degree Days 21 19  
Month to date cooling degree days 432 397  
Year to date cooling degree days 3279 2982  
Since 1 June cooling degree days 1657 1552  
Growing Degree Days 36 (Base 50)    
Moisture  
Dew Point 74 °F    
Average Humidity 69    
Maximum Humidity 74    
Minimum Humidity 64    
Precipitation  
Precipitation 1.05 in 0.17 in 2.06 in (1963)
Month to date precipitation 2.86 3.24  
Year to date precipitation 20.95 21.53  
Snow  
Snow 0.00 in - - ()
Month to date snowfall 0.0  
Since 1 June snowfall 0.0  
Since 1 July snowfall 0.0  
Snow Depth 0.00 in    
Sea Level Pressure  
Sea Level Pressure 30.06 in    
Wind  
Wind Speed 7 mph (ESE)    
Max Wind Speed 18 mph    
Max Gust Speed 24 mph    
Visibility 8 miles    
Events Rain , Thunderstorm    
T = Trace of Precipitation, MM = Missing Value Source: NWS Daily Summary

Daily Weather History Graph

Daily Weather History Graph

Search for Another Location

Airport or City:

Trip Planner

Search our weather history database for the weather conditions in past years. The results will help you decide how hot, cold, wet, or windy it might be!

Date:

Astronomy

Aug. 20, 2014 Rise Set
Actual Time 7:03 AM EDT 7:56 PM EDT
Civil Twilight 6:40 AM EDT 8:20 PM EDT
Nautical Twilight 6:12 AM EDT 8:47 PM EDT
Astronomical Twilight 5:43 AM EDT 9:16 PM EDT
Moon 2:53 AM EDT (8/20) 4:29 PM EDT (8/20)
Length of Visible Light 13h 40m
Length of Day
12h 53m
Waning Crescent, 21% of the Moon is Illuminated
Aug 20
Waning Crescent
Aug 25
New
Sep 2
First Quarter
Sep 8
Full
Sep 15
Last Quarter

Hourly Weather History & Observations

Time (EDT) Temp. Heat Index Dew Point Humidity Pressure Visibility Wind Dir Wind Speed Gust Speed Precip Events Conditions
12:53 AM 86.0 °F 93.8 °F 73.9 °F 67% 30.03 in 10.0 mi SE 9.2 mph - N/A   Clear
1:53 AM 86.0 °F 93.0 °F 73.0 °F 65% 30.01 in 10.0 mi SE 9.2 mph - N/A   Clear
2:53 AM 86.0 °F 96.0 °F 75.9 °F 72% 30.01 in 10.0 mi ESE 9.2 mph - N/A   Clear
3:53 AM 86.0 °F 96.0 °F 75.9 °F 72% 30.00 in 10.0 mi SE 8.1 mph - N/A   Clear
4:53 AM 86.0 °F 96.0 °F 75.9 °F 72% 30.00 in 10.0 mi SE 9.2 mph - N/A   Partly Cloudy
5:53 AM 86.0 °F 96.0 °F 75.9 °F 72% 30.01 in 10.0 mi ESE 8.1 mph - N/A   Partly Cloudy
6:53 AM 86.0 °F 95.1 °F 75.0 °F 70% 30.03 in 10.0 mi SE 6.9 mph - N/A   Clear
7:53 AM 87.1 °F 97.3 °F 75.9 °F 69% 30.04 in 10.0 mi ESE 6.9 mph - N/A   Clear
8:53 AM 88.0 °F 98.5 °F 75.9 °F 67% 30.06 in 10.0 mi East 5.8 mph - N/A   Scattered Clouds
9:53 AM 89.1 °F 100.2 °F 75.9 °F 65% 30.07 in 10.0 mi East 5.8 mph - N/A Thunderstorm Clear
10:09 AM 89.1 °F 100.2 °F 75.9 °F 65% 30.08 in 10.0 mi ESE 8.1 mph - N/A   Clear
10:53 AM 90.0 °F 100.2 °F 75.0 °F 61% 30.10 in 10.0 mi ESE 8.1 mph - N/A   Partly Cloudy
11:53 AM 84.9 °F 92.1 °F 73.9 °F 69% 30.10 in 10.0 mi SSW 6.9 mph - 0.10 in Rain Light Rain
12:53 PM 88.0 °F 97.5 °F 75.0 °F 65% 30.09 in 10.0 mi South 4.6 mph - 0.00 in   Overcast
1:30 PM 84.9 °F 94.1 °F 75.9 °F 74% 30.09 in 4.0 mi SSW 12.7 mph - 0.05 in Rain , Thunderstorm Heavy Rain
1:39 PM 82.9 °F 88.0 °F 72.0 °F 69% 30.09 in 1.0 mi Variable 3.5 mph - 0.08 in Rain , Thunderstorm Heavy Rain
1:42 PM 82.0 °F 86.7 °F 72.0 °F 71% 30.09 in 0.5 mi Variable 5.8 mph - 0.24 in Rain , Thunderstorm Heavy Rain
1:47 PM 82.4 °F 87.2 °F 71.6 °F 70% 30.09 in 1.0 mi SSW 8.1 mph - 0.43 in Rain , Thunderstorm Heavy Rain
1:53 PM 82.0 °F 87.9 °F 73.9 °F 76% 30.10 in 3.0 mi SE 12.7 mph - 0.56 in Rain , Thunderstorm Heavy Rain
2:00 PM 81.0 °F 84.9 °F 71.1 °F 72% 30.08 in 0.8 mi South 6.9 mph 17.3 mph 0.34 in Rain , Thunderstorm Heavy Thunderstorms and Rain
2:03 PM 81.0 °F 84.9 °F 71.1 °F 72% 30.08 in 1.2 mi SSE 8.1 mph - 0.36 in Rain , Thunderstorm Thunderstorms and Rain
2:10 PM 82.0 °F 86.3 °F 71.1 °F 69% 30.08 in 8.0 mi SSW 6.9 mph - 0.37 in Rain Rain
2:53 PM 88.0 °F 98.5 °F 75.9 °F 67% 30.06 in 10.0 mi East 4.6 mph - 0.37 in   Clear
3:12 PM 89.1 °F 100.2 °F 75.9 °F 65% 30.05 in 10.0 mi Variable 3.5 mph - N/A Thunderstorm Scattered Clouds
3:27 PM 88.0 °F 97.5 °F 75.0 °F 65% 30.05 in 10.0 mi Calm Calm - N/A   Mostly Cloudy
3:34 PM 89.1 °F 99.1 °F 75.0 °F 63% 30.06 in 10.0 mi Calm Calm - N/A Thunderstorm Overcast
3:53 PM 88.0 °F 98.5 °F 75.9 °F 67% 30.06 in 10.0 mi Calm Calm - N/A Thunderstorm Overcast
4:16 PM 87.1 °F 97.3 °F 75.9 °F 69% 30.06 in 10.0 mi East 4.6 mph - N/A Thunderstorm Thunderstorm
4:53 PM 81.0 °F 86.2 °F 73.9 °F 79% 30.07 in 6.0 mi SE 17.3 mph - 0.01 in Rain , Thunderstorm Thunderstorms and Rain
5:29 PM 82.0 °F 88.6 °F 75.0 °F 79% 30.06 in 10.0 mi ESE 8.1 mph - 0.01 in Rain , Thunderstorm Light Rain
5:53 PM 82.0 °F 87.4 °F 73.0 °F 74% 30.06 in 10.0 mi Calm Calm - 0.01 in Thunderstorm Partly Cloudy
6:07 PM 82.9 °F 89.4 °F 73.9 °F 74% 30.05 in 10.0 mi South 3.5 mph - 0.00 in Rain Light Rain
6:46 PM 82.9 °F 90.8 °F 75.9 °F 79% 30.06 in 10.0 mi North 4.6 mph - 0.00 in Thunderstorm Partly Cloudy
6:53 PM 84.0 °F 91.9 °F 75.0 °F 74% 30.07 in 10.0 mi NNE 6.9 mph - 0.00 in Thunderstorm Partly Cloudy
7:53 PM 82.9 °F 87.0 °F 70.0 °F 65% 30.07 in 10.0 mi ENE 5.8 mph - N/A   Clear
8:53 PM 84.0 °F 90.2 °F 73.0 °F 69% 30.07 in 10.0 mi ENE 6.9 mph - N/A   Scattered Clouds
9:53 PM 82.9 °F 88.0 °F 72.0 °F 69% 30.07 in 10.0 mi East 5.8 mph - N/A   Clear
10:53 PM 84.0 °F 91.2 °F 73.9 °F 72% 30.09 in 10.0 mi ENE 4.6 mph - N/A   Clear
11:53 PM 84.0 °F 91.9 °F 75.0 °F 74% 30.09 in 10.0 mi NE 3.5 mph - N/A   Clear